Weather History for KEST - July, 2014

Change the Weather History Date:

Saturday, July 19, 2014

  Actual Average Record
Temperature  
Mean Temperature 69 °F 72 °F  
Max Temperature 79 °F 83 °F 99 °F (1957)
Min Temperature 59 °F 61 °F 50 °F (1958)
Degree Days  
Heating Degree Days 0 0  
Month to date heating degree days 25 0  
Since 1 June heating degree days 56 41  
Since 1 July heating degree days 25 0  
Cooling Degree Days 4 7  
Month to date cooling degree days 64 133  
Year to date cooling degree days 227 306  
Since 1 June cooling degree days 178 270  
Growing Degree Days 19 (Base 50)    
Moisture  
Dew Point 61 °F    
Average Humidity 77    
Maximum Humidity 97    
Minimum Humidity 56    
Precipitation  
Precipitation 0.00 in 0.11 in 2.15 in (1950)
Month to date precipitation 0.50 2.55  
Sea Level Pressure  
Sea Level Pressure 29.93 in    
Wind  
Wind Speed 13 mph (South)    
Max Wind Speed 22 mph    
Max Gust Speed 30 mph    
Visibility 9 miles    
Events      
T = Trace of Precipitation, MM = Missing Value Source: NWS Daily Summary

Daily Weather History Graph

Daily Weather History Graph

Search for Another Location

Airport or City:

Trip Planner

Search our weather history database for the weather conditions in past years. The results will help you decide how hot, cold, wet, or windy it might be!

Date:

Astronomy

Jul. 19, 2014 Rise Set
Actual Time 5:55 AM CDT 8:54 PM CDT
Civil Twilight 5:21 AM CDT 9:28 PM CDT
Nautical Twilight 4:38 AM CDT 10:11 PM CDT
Astronomical Twilight 3:47 AM CDT 11:02 PM CDT
Moon 12:36 AM CDT (7/19) 2:32 PM CDT (7/19)
Length of Visible Light 16h 06m
Length of Day
14h 58m
Last Quarter, 43% of the Moon is Illuminated
Jul 19
Last Quarter
Jul 26
New
Aug 3
First Quarter
Aug 10
Full
Aug 17
Last Quarter

Hourly Weather History & Observations

Time (CDT) Temp. Dew Point Humidity Pressure Visibility Wind Dir Wind Speed Gust Speed Precip Events Conditions
12:52 AM 62.1 °F 60.1 °F 93% 29.96 in 10.0 mi South 8.1 mph - N/A   Clear
1:52 AM 62.1 °F 60.1 °F 93% 29.94 in 9.0 mi South 10.4 mph - N/A   Mostly Cloudy
2:52 AM 61.0 °F 59.0 °F 93% 29.95 in 9.0 mi South 9.2 mph - N/A   Scattered Clouds
3:52 AM 61.0 °F 59.0 °F 93% 29.93 in 8.0 mi South 11.5 mph - N/A   Clear
4:52 AM 59.0 °F 57.9 °F 96% 29.96 in 6.0 mi South 8.1 mph - N/A   Clear
5:52 AM 60.1 °F 59.0 °F 96% 29.96 in 6.0 mi South 10.4 mph - N/A   Overcast
6:52 AM 60.1 °F 57.9 °F 93% 29.93 in 5.0 mi South 11.5 mph - N/A   Clear
7:52 AM 63.0 °F 59.0 °F 87% 29.96 in 8.0 mi South 9.2 mph - N/A   Clear
10:52 AM 70.0 °F 60.1 °F 71% 29.95 in 10.0 mi SSW 15.0 mph 23.0 mph N/A   Clear
11:52 AM 73.9 °F 61.0 °F 64% 29.93 in 10.0 mi South 16.1 mph - N/A   Clear
12:52 PM 77.0 °F 61.0 °F 58% 29.94 in 10.0 mi South 17.3 mph - N/A   Clear
1:52 PM 77.0 °F 61.0 °F 58% 29.93 in 10.0 mi South 15.0 mph - N/A   Clear
2:52 PM 77.0 °F 62.1 °F 60% 29.90 in 10.0 mi South 18.4 mph 25.3 mph N/A   Clear
3:52 PM 79.0 °F 63.0 °F 58% 29.90 in 10.0 mi South 21.9 mph 29.9 mph N/A   Partly Cloudy
4:52 PM 75.9 °F 62.1 °F 62% 29.92 in 10.0 mi SSW 16.1 mph 21.9 mph N/A   Overcast
5:52 PM 77.0 °F 63.0 °F 62% 29.90 in 10.0 mi SSW 17.3 mph 20.7 mph N/A   Overcast
6:52 PM 75.9 °F 63.0 °F 64% 29.91 in 10.0 mi South 11.5 mph - N/A   Overcast
7:52 PM 75.0 °F 63.0 °F 66% 29.90 in 10.0 mi South 11.5 mph - N/A   Overcast
8:52 PM 73.0 °F 64.0 °F 73% 29.90 in 10.0 mi South 9.2 mph - N/A   Overcast
10:52 PM 71.1 °F 64.0 °F 78% 29.90 in 10.0 mi South 9.2 mph - N/A   Overcast
11:52 PM 71.1 °F 64.0 °F 78% 29.90 in 10.0 mi South 10.4 mph - N/A   Overcast